Simultaneous Nadir Overpasses (SNOs) Predictions

Prediction of SNOs between GOES-14 and NOAA-20 Satellite Orbit:

Table of predicted SNOs for the next 14.0 days since TLE Epoch: 3/25/2023
Index Date Time (GOES-14) GOES-14 Lat,Lon NOAA-20 Lat,Lon Distance(km) Time Diff (sec)
1 03/25/2023 08:24:31 0.14,-107.98 -0.49,-105.20 317.53 80
2 03/26/2023 20:46:29 -0.15,-108.02 -0.68,-110.51 282.66 80
3 03/27/2023 20:30:26 -0.15,-108.03 0.33,-105.98 234.49 80
4 03/29/2023 08:52:15 0.15,-108.02 0.86,-111.25 367.84 80
5 03/30/2023 08:30:52 0.16,-108.02 -0.16,-106.72 148.53 80
6 03/31/2023 20:52:49 -0.16,-108.05 -1.06,-112.02 452.93 80
7 04/01/2023 20:36:45 -0.16,-108.06 -0.04,-107.50 64.39 80
8 04/04/2023 08:39:51 0.17,-108.07 0.19,-108.24 19.71 80
9 04/05/2023 08:18:27 0.17,-108.07 -0.79,-103.70 497.01 80
10 04/06/2023 20:40:25 -0.17,-108.10 -0.35,-109.02 104.85 80
11 04/07/2023 20:24:21 -0.17,-108.11 0.63,-104.48 412.51 80
